Flag for India Weather past 2 weeks in Kathua, Jammu and Kashmir, India

Now
99 °F

Broken clouds.


Feels Like: 98 °F
Forecast: 69 / 95 °F
Wind: 5 mph from Southeast

Location: Amritsar Airport

Current Time: Apr 19, 2015 at 3:32:24 PM

Latest Report: Apr 19, 2015 at 1:30 PM


Visibility: 3 mi

Pressure: 29.68 "Hg

Humidity: 25%

Dew point: 57 °F

Location of KathuaLocation

Historic Weather in Kathua — Graph

°F

Kathua temperature yesterday

Maximum temperature yesterday: 93 °F (at 12:30 PM)
Minimum temperature yesterday: 66 °F (at 4:00 AM)
Average temperature yesterday: 80 °F

Past Weeks' High & Low Weather Summary

 TemperatureHumidityPressure
High99 °F (Apr 19, 1:30 PM)100% (Apr 5, 4:00 AM)30.12 "Hg (Apr 5, 4:00 AM)
Low55 °F (Apr 8, 6:00 AM)25% (Apr 19, 1:30 PM)29.62 "Hg (Apr 4, 4:00 PM)
Average75 °F70%29.85 "Hg
* Reported Apr 4 1:30 PM — Apr 19 1:30 PM, Kathua, Weather by CustomWeather, © 2015

Note: Actual official high and low records may vary slightly from our data, if they occured in-between our weather recording intervals... More about our weather records

Advertising

Kathua weather history for previous 24 hours

 ConditionsComfort  
Time TempWeatherWind HumidityBarometerVisibility
1:30 PM
Sun, Apr 19
99 °FBroken clouds.5 mph25%29.68 "Hg3 mi
12:30 PM97 °FScattered clouds.1 mph28%29.71 "Hg3 mi
12:00 PM97 °FScattered clouds.2 mph28%29.71 "Hg3 mi
11:30 AM93 °FScattered clouds.5 mph34%29.71 "Hg3 mi
11:00 AM91 °FPartly sunny.1 mph38%29.74 "Hg3 mi
10:30 AM90 °FPartly sunny.3 mph43%29.71 "Hg2 mi
10:00 AM88 °FScattered clouds.3 mph49%29.71 "Hg3 mi
9:00 AM81 °FScattered clouds.No wind62%29.71 "Hg2 mi
8:30 AM79 °FScattered clouds.No wind70%29.71 "Hg2 mi
8:00 AM75 °FScattered clouds.3 mph74%29.71 "Hg2 mi
7:30 AM73 °FScattered clouds.8 mph78%29.68 "Hg2 mi
7:00 AM72 °FFog.5 mph83%29.68 "Hg2 mi
6:30 AM72 °FFog.5 mph78%29.68 "Hg2 mi
6:00 AM68 °FFog.No wind88%29.68 "Hg2 mi
5:30 AM70 °FFog.No wind88%29.65 "Hg2 mi
5:00 AM72 °FFog.No wind83%29.65 "Hg2 mi
4:30 AM73 °FFog.6 mph74%29.65 "Hg2 mi
4:00 AM72 °FFog.No wind78%29.65 "Hg2 mi
3:30 AM73 °FFog.No wind74%29.65 "Hg2 mi
3:00 AM75 °FFog.6 mph69%29.65 "Hg2 mi
2:30 AM72 °FFog.6 mph78%29.68 "Hg2 mi
2:00 AM72 °FFog.5 mph78%29.68 "Hg2 mi
1:30 AM72 °FFog.2 mph78%29.68 "Hg2 mi
12:00 AM73 °FFog.2 mph78%29.68 "Hg2 mi
11:30 PM
Sat, Apr 18
75 °FPassing clouds.No wind74%29.71 "Hg2 mi
11:00 PM75 °FPassing clouds.No wind69%29.71 "Hg2 mi
10:30 PM77 °FPassing clouds.No wind65%29.71 "Hg2 mi
10:00 PM79 °FPassing clouds.No wind61%29.68 "Hg2 mi
9:30 PM81 °FHaze.No wind58%29.68 "Hg2 mi
9:00 PM81 °FHaze.No wind54%29.65 "Hg2 mi
8:30 PM81 °FHaze.No wind58%29.65 "Hg2 mi
8:00 PM81 °FPassing clouds.No wind58%29.62 "Hg2 mi
7:30 PM82 °FScattered clouds.No wind55%29.62 "Hg2 mi
7:00 PM88 °FScattered clouds.6 mph40%29.62 "Hg3 mi
6:30 PM88 °FPassing clouds.6 mph40%29.62 "Hg3 mi
6:00 PM90 °FPassing clouds.6 mph38%29.62 "Hg3 mi
5:30 PM91 °FScattered clouds.8 mph38%29.62 "Hg3 mi
5:00 PM93 °FBroken clouds.9 mph34%29.62 "Hg3 mi
4:30 PM93 °FBroken clouds.8 mph32%29.62 "Hg3 mi
4:00 PM93 °FBroken clouds.9 mph34%29.62 "Hg3 mi
3:30 PM93 °FBroken clouds.12 mph36%29.62 "Hg3 mi
3:00 PM93 °FBroken clouds.9 mph34%29.62 "Hg3 mi
Weather by CustomWeather, © 2015

See weather overviewHow to use our weather pages